Weather History for NW Arkansas Airport, AR

Change the Weather History Date:

Sunday, December 30, 2012

  Actual Average Record
Temperature  
Mean Temperature 28 °F -  
Max Temperature 39 °F - - ()
Min Temperature 16 °F - - ()
Degree Days  
Heating Degree Days 38    
Moisture  
Dew Point 19 °F    
Average Humidity 69    
Maximum Humidity 92    
Minimum Humidity 43    
Precipitation  
Precipitation 0.00 in - - ()
Sea Level Pressure  
Sea Level Pressure 30.36 in    
Wind  
Wind Speed 5 mph (South)    
Max Wind Speed 16 mph    
Max Gust Speed -    
Visibility 9 miles    
Events      
T = Trace of Precipitation, MM = Missing Value Source: NWS Daily Summary

Daily Weather History Graph

Daily Weather History Graph

Search for Another Location

Airport:

Trip Planner

Search our weather history database for the weather conditions in past years. The results will help you decide how hot, cold, wet, or windy it might be!

Date:

Astronomy

Dec. 30, 2012 Rise Set
Actual Time 7:28 AM CST 5:11 PM CST
Civil Twilight 6:59 AM CST 5:40 PM CST
Nautical Twilight 6:27 AM CST 6:12 PM CST
Astronomical Twilight 5:56 AM CST 6:44 PM CST
Moon 7:39 PM CST (12/30) 8:41 AM CST (12/30)
Length of Visible Light 10h 40m
Length of Day
9h 43m
Waning Gibbous, 95% of the Moon is Illuminated
Dec 30
Waning Gibbous
Jan 4
Last Quarter
Jan 11
New
Jan 18
First Quarter
Jan 26
Full

Hourly Weather History & Observations

Time (CST) Temp. Windchill Dew Point Humidity Pressure Visibility Wind Dir Wind Speed Gust Speed Precip Events Conditions
12:53 AM 19.9 °F - 15.1 °F 81% 30.42 in 9.0 mi Calm Calm - N/A   Clear
1:53 AM 19.0 °F - 16.0 °F 88% 30.42 in 8.0 mi Calm Calm - N/A   Clear
2:53 AM 17.1 °F 10.0 °F 15.1 °F 92% 30.44 in 8.0 mi SSW 4.6 mph - N/A   Clear
3:53 AM 18.0 °F - 15.1 °F 88% 30.43 in 8.0 mi Calm Calm - N/A   Clear
4:53 AM 17.1 °F 10.0 °F 14.0 °F 88% 30.44 in 9.0 mi SSW 4.6 mph - N/A   Clear
5:53 AM 17.1 °F - 15.1 °F 92% 30.43 in 8.0 mi Calm Calm - N/A   Clear
6:53 AM 16.0 °F - 14.0 °F 92% 30.43 in 8.0 mi Calm Calm - N/A   Clear
7:53 AM 19.0 °F - 16.0 °F 88% 30.43 in 6.0 mi Calm Calm - N/A   Clear
8:53 AM 24.1 °F 19.7 °F 19.9 °F 84% 30.45 in 9.0 mi South 3.5 mph - N/A   Clear
9:53 AM 28.0 °F 22.8 °F 21.9 °F 78% 30.45 in 10.0 mi South 4.6 mph - N/A   Clear
10:53 AM 33.1 °F 26.1 °F 24.1 °F 70% 30.43 in 10.0 mi South 8.1 mph - N/A   Clear
11:53 AM 37.0 °F 29.8 °F 23.0 °F 57% 30.39 in 10.0 mi South 10.4 mph - N/A   Clear
12:53 PM 39.9 °F 31.8 °F 21.0 °F 47% 30.38 in 10.0 mi SSW 15.0 mph - N/A   Clear
1:53 PM 39.0 °F 30.3 °F 18.0 °F 43% 30.34 in 10.0 mi South 16.1 mph - N/A   Clear
2:53 PM 39.0 °F 32.3 °F 19.9 °F 46% 30.34 in 10.0 mi South 10.4 mph - N/A   Clear
3:53 PM 37.9 °F 32.1 °F 21.0 °F 51% 30.34 in 10.0 mi South 8.1 mph - N/A   Clear
4:53 PM 37.0 °F 30.4 °F 19.0 °F 48% 30.32 in 10.0 mi South 9.2 mph - N/A   Clear
5:53 PM 32.0 °F 25.6 °F 21.0 °F 64% 30.30 in 10.0 mi SSE 6.9 mph - N/A   Clear
6:53 PM 33.1 °F 26.1 °F 21.9 °F 64% 30.29 in 10.0 mi SSE 8.1 mph - N/A   Clear
7:53 PM 32.0 °F 24.8 °F 21.9 °F 66% 30.27 in 10.0 mi SSE 8.1 mph - N/A   Clear
8:53 PM 33.1 °F 26.1 °F 21.0 °F 61% 30.26 in 10.0 mi South 8.1 mph - N/A   Clear
9:53 PM 34.0 °F 25.0 °F 21.0 °F 59% 30.25 in 10.0 mi South 12.7 mph - N/A   Clear
10:53 PM 35.1 °F 26.4 °F 23.0 °F 61% 30.23 in 10.0 mi South 12.7 mph - N/A   Clear
11:53 PM 36.0 °F 27.5 °F 23.0 °F 59% 30.22 in 10.0 mi South 12.7 mph - N/A   Clear